sat.trackr.live / text

‹ back to catalog

ONEWEB-0147

NORAD 47293 · 2020-100AM

PAYLOAD ACTIVE UNKNOWN

§ Identity

Operator
Country
UK
Launch date
2020-12-18
Launch site
VOSTO
Launch vehicle
Mass (kg)
RCS (m²)

Purposes: comms

External: N2YO · Heavens-Above · Gunter

§ Orbital elements

Epoch: 2026-05-25T02:58:24.693888Z

Period
109.72 min
Inclination
87.8960°
Eccentricity
0.0001680
Mean motion
13.12441366 rev/d
Perigee alt
1,212.5 km
Apogee alt
1,215.0 km
Semi-major
7,591.9 km
B*
5.0493e-4
RAAN
355.2288°
Arg perigee
81.7720°
Mean anomaly
278.3599°
Rev number
26,154

§ Raw data

ONEWEB-01471 47293U 20100AM  26145.12389692  .00000194  00000+0  50493-3 0  99932 47293  87.8960 355.2288 0001680  81.7720 278.3599 13.12441366261540

JSON: /api/v1/satellites/47293 · /tle

For live sub-satellite position, see the globe view (requires WebGL).

§ Visibility from observer

Set your observer location to see the next 7 days of passes ≥ 10°. The values pass through the URL so the page stays shareable.

No JS? Fill the form by hand. The geolocation button needs JavaScript.